Wind_Speed
6 4 4 6 7 7 10 8 3 6 5 6 6 2 3 7 7 4 13 11 20 22 20 18 17 16 17 17 18 18 18 17 18 17 17 17 17 15 14 14 14 14 13 13 12 11 11 11 11
4 4 7 5 6 2 8 7 6 9 7 5 9 3 3 5 6 8 16 14 21 22 20 18 18 17 18 18 18 17 18 17 18 18 17 17 16 15 14 14 13 12 12 11 10 9 9 8 8
3 6 5 6 4 3 6 5 8 8 7 6 5 2 3 4 4 14 14 22 23 21 19 18 19 17 17 17 17 17 17 18 18 18 17 16 15 14 14 13 12 11 9 9 8 7 6 6 5
6 6 5 8 1 6 6 5 3 10 7 3 1 6 6 6 11 8 20 23 23 21 19 19 18 16 16 16 17 17 17 17 16 16 15 15 14 13 12 11 10 9 8 7 6 5 3 3 3
7 4 7 8 4 1 3 3 1 7 4 3 2 4 4 6 10 20 22 22 22 21 19 19 17 16 16 16 17 17 16 16 16 15 15 13 13 12 10 9 9 8 7 5 3 2 1 2 3
6 4 7 10 6 1 3 1 3 8 5 4 4 4 8 11 16 18 20 20 20 21 19 18 17 16 15 15 15 15 15 15 14 13 13 12 11 11 9 8 7 6 4 3 1 1 3 3 4
11 7 4 5 2 6 1 3 9 9 3 2 1 9 8 13 16 18 20 20 20 20 19 18 17 16 15 14 14 14 14 14 12 12 11 11 10 8 8 7 6 4 3 2 2 3 4 6 6
7 7 6 6 3 3 2 8 5 9 3 3 2 2 9 16 16 17 19 19 20 20 18 18 17 17 15 13 14 13 13 13 12 11 10 10 9 8 6 5 4 4 4 3 4 5 6 7 8
6 10 9 5 5 4 5 9 7 1 5 6 5 1 7 20 18 18 19 19 20 20 19 18 18 16 15 14 14 14 13 13 12 10 10 7 6 6 6 8 8 7 5 4 5 6 7 9 9
10 11 8 3 2 6 4 6 13 8 7 9 9 7 16 22 21 21 21 21 21 21 20 18 18 17 16 14 13 12 11 10 10 9 9 8 7 7 8 8 9 7 6 6 5 7 8 7 8
14 14 4 6 5 6 6 5 6 11 11 10 11 12 17 20 20 20 20 21 22 21 20 19 18 17 17 15 14 13 12 12 11 11 10 9 8 7 7 7 7 6 8 7 6 8 8 7 9
15 16 7 4 3 8 6 2 6 11 9 4 4 18 20 19 18 21 20 19 19 19 19 19 19 18 17 15 15 13 13 12 11 11 11 10 9 8 7 7 7 7 8 7 9 10 9 10 11
17 18 9 10 9 10 10 8 7 10 8 4 5 17 19 19 19 19 19 17 16 19 20 20 19 19 18 17 14 14 14 13 11 11 12 11 10 8 8 8 8 8 8 8 9 10 11 12 13
11 18 13 11 13 11 12 8 5 7 10 8 12 16 17 19 21 20 20 20 21 20 21 21 22 20 19 18 16 15 13 12 12 11 10 12 10 9 9 8 8 9 10 10 10 10 11 12 13
5 11 14 17 17 16 10 14 10 9 8 10 12 14 16 18 22 23 23 23 23 21 20 21 21 20 19 18 17 15 13 13 12 11 12 12 11 10 9 9 9 9 8 10 11 11 11 13 13
11 10 14 17 16 13 10 16 16 9 9 11 10 11 14 18 24 25 24 24 23 21 22 21 20 20 20 18 17 16 14 13 11 10 10 11 11 10 9 10 10 9 10 10 10 10 12 14 12
8 13 12 15 8 14 12 18 17 6 9 14 13 12 14 16 21 25 27 27 26 25 23 23 22 21 20 18 16 16 14 13 11 11 10 10 10 10 11 11 10 9 9 10 10 10 10 10 10
9 9 8 11 7 10 18 17 19 10 9 11 15 15 16 17 21 28 30 28 27 25 26 24 24 22 21 19 18 17 16 15 13 11 10 9 9 11 12 10 8 7 7 8 7 7 7 8 10
8 10 12 9 5 11 14 15 16 16 13 14 15 16 18 20 22 25 26 27 26 26 27 28 27 26 24 22 21 20 19 15 13 11 8 8 8 9 9 8 6 6 6 5 5 6 6 9 8
9 12 13 10 7 7 14 19 20 18 17 17 19 19 19 20 22 20 25 25 29 28 28 28 28 27 27 23 22 19 18 15 13 10 8 7 8 8 6 6 5 4 3 3 3 4 7 5 5
11 13 13 12 12 13 17 19 20 18 22 17 14 16 17 20 22 22 22 24 24 27 28 28 27 28 28 25 22 18 17 12 11 10 7 7 8 7 7 5 4 3 2 1 0 2 3 3 2
12 7 9 12 11 10 2 13 13 13 16 18 18 15 16 18 19 21 20 24 25 25 23 25 26 27 26 27 26 25 24 18 14 13 11 11 10 9 8 8 6 4 3 3 2 1 2 3 3
10 3 8 11 13 15 16 11 14 16 13 16 19 18 12 13 15 19 21 26 24 21 22 22 24 26 26 28 26 23 20 16 15 15 16 12 11 10 9 9 8 5 4 4 3 2 3 3 4
14 13 16 16 14 15 18 18 17 13 15 13 16 15 15 11 12 12 16 20 21 20 20 21 24 25 27 28 28 25 24 22 21 20 18 16 13 12 12 11 9 7 6 5 3 3 4 3 3
7 12 12 14 13 14 14 15 10 10 11 11 12 12 10 5 8 10 12 14 16 20 20 21 24 27 29 30 29 27 26 25 27 25 20 20 16 14 14 13 12 8 7 5 4 4 4 3 3
14 10 10 20 16 16 10 8 6 2 7 12 20 19 19 19 20 16 10 10 16 18 19 21 23 26 30 30 28 26 26 26 23 23 22 20 19 17 17 15 12 10 8 6 4 4 4 3 3
7 8 13 12 18 18 18 24 18 6 12 15 17 20 21 22 21 19 17 12 15 17 20 22 24 24 27 27 27 27 27 28 25 24 22 20 19 20 18 16 13 10 8 6 4 3 4 3 2
10 10 8 9 16 22 15 17 10 13 12 14 17 20 22 23 24 21 15 13 14 15 17 20 20 22 23 24 23 24 27 27 26 26 24 20 19 19 19 17 15 10 7 4 3 2 1 2 2
9 3 6 7 9 14 17 15 9 11 16 19 21 24 25 24 23 22 17 15 7 6 14 18 20 22 22 23 24 25 25 25 25 25 22 21 19 20 18 15 13 11 7 4 2 2 2 3 3
8 9 10 5 9 9 10 15 9 8 18 23 26 25 25 24 23 20 16 17 13 12 16 16 16 19 22 23 23 25 24 25 26 25 24 23 21 17 14 13 11 11 6 5 4 2 1 3 4
Wind_Direction
335 276 257 244 235 242 118 96 94 131 144 47 139 182 18 21 3 33 141 141 145 145 148 146 147 147 148 148 145 146 143 140 135 134 130 127 121 126 121 117 117 116 113 109 105 101 96 91 85
290 282 240 277 260 172 106 107 130 69 83 111 123 188 113 58 42 105 143 148 149 145 146 149 150 151 150 150 148 146 143 141 136 135 133 130 130 129 125 120 116 116 116 114 111 104 95 88 79
259 266 276 298 293 84 97 91 93 103 114 139 135 309 9 50 79 144 127 145 146 147 147 155 152 151 151 149 148 146 142 139 137 136 135 134 134 132 128 127 127 121 118 115 113 107 96 86 67
287 207 222 259 245 73 352 28 72 132 124 111 74 108 114 65 132 147 144 146 148 148 148 156 155 152 150 148 147 146 143 141 140 138 138 137 136 136 135 134 129 126 123 124 121 109 96 71 46
257 251 260 240 206 48 342 5 100 113 113 82 16 104 84 86 113 135 146 151 152 150 151 151 157 153 150 149 149 147 146 147 144 144 143 144 143 142 141 136 135 137 135 129 119 99 25 1 339
243 274 233 227 175 304 270 187 191 144 109 86 198 161 111 123 132 142 150 154 156 153 153 156 158 156 154 153 153 150 149 151 150 150 150 150 150 148 146 146 149 152 149 149 180 267 300 303 311
273 251 258 293 276 221 1 183 206 173 130 122 172 168 108 148 144 151 157 159 161 160 156 156 159 161 160 158 157 157 155 156 156 156 157 156 157 156 157 161 170 177 178 210 249 275 289 296 301
280 266 204 218 207 79 73 195 200 194 137 144 207 136 165 145 150 156 160 164 166 167 164 164 165 164 163 164 165 166 166 164 166 165 167 168 168 175 182 180 215 213 219 237 264 282 288 292 293
262 253 226 182 245 62 131 198 174 109 183 192 170 15 100 143 152 163 167 170 172 175 173 172 171 171 170 169 173 173 178 175 176 177 183 178 185 209 220 221 233 232 242 254 271 281 293 298 297
238 241 224 57 21 349 36 232 171 194 199 194 161 122 140 152 164 172 177 179 180 179 179 178 177 175 175 175 179 177 182 185 185 189 195 193 210 209 210 225 245 248 258 269 290 298 303 307 282
228 251 201 202 288 314 358 165 209 213 217 232 205 163 160 165 175 183 186 186 185 181 180 183 182 181 183 183 181 185 189 192 196 194 195 206 218 225 229 233 246 246 268 263 275 282 275 285 286
244 238 280 271 263 290 314 340 219 230 250 62 226 162 169 174 184 191 190 186 184 184 186 187 186 187 189 189 188 191 194 197 197 199 204 207 218 226 231 239 241 243 249 263 267 275 280 282 281
236 249 245 250 267 279 296 277 306 266 242 228 189 167 181 177 188 193 191 188 187 189 189 192 190 192 193 193 196 197 201 202 202 202 209 211 221 228 233 240 246 250 258 266 275 280 282 282 281
244 248 252 254 259 260 276 275 294 245 175 192 169 178 187 189 187 190 194 193 197 194 192 193 195 196 194 196 198 200 204 204 204 208 212 216 219 227 230 238 245 247 253 263 275 281 287 290 294
218 239 232 246 249 255 273 261 242 250 189 197 199 187 191 199 195 199 196 199 199 197 193 195 197 198 198 202 202 202 205 204 206 209 214 214 217 227 230 236 243 252 261 270 276 283 286 290 294
227 238 248 230 232 237 232 252 223 187 208 222 200 207 203 199 208 206 203 205 201 201 197 196 198 200 201 203 203 204 206 206 209 209 214 219 224 228 235 241 250 261 260 269 273 283 293 296 293
198 249 214 255 194 254 218 247 250 150 224 238 236 217 214 213 212 212 211 207 205 202 199 200 201 201 200 201 202 203 204 206 211 212 216 222 225 229 235 248 256 251 260 263 268 274 286 294 290
254 217 224 255 176 228 244 243 254 204 228 227 233 236 227 219 219 214 213 210 205 204 203 202 203 203 200 198 199 203 205 208 210 215 222 228 238 234 233 239 239 234 242 249 257 272 279 293 302
290 270 270 269 277 270 264 258 251 250 245 244 241 234 235 229 224 219 214 212 208 205 206 204 202 201 196 198 199 201 202 203 204 208 215 219 214 207 207 220 223 219 231 254 271 278 283 299 306
258 264 261 273 274 268 261 258 253 245 247 249 247 245 236 237 234 220 215 208 207 208 206 209 207 201 200 204 202 204 203 202 203 190 186 191 189 190 205 216 210 210 215 235 266 282 293 293 337
247 261 274 271 285 270 262 264 256 251 245 247 247 252 249 237 235 232 213 213 211 212 208 207 206 204 202 202 197 189 186 182 181 173 165 159 154 160 168 169 174 174 186 201 355 337 319 313 325
270 278 260 265 263 269 121 278 281 242 237 231 238 228 228 234 237 245 229 214 217 216 213 211 205 204 203 199 197 192 188 192 192 178 170 154 154 150 152 143 144 150 157 145 114 52 15 328 333
286 314 277 279 271 274 255 256 265 256 231 252 238 239 239 238 243 242 230 221 218 214 212 208 204 202 201 198 199 193 201 194 176 169 158 158 154 150 150 140 138 151 148 133 113 63 45 14 350
295 282 273 266 254 254 253 251 267 260 226 243 249 229 247 246 249 249 230 222 219 215 208 204 197 198 195 192 193 192 191 178 171 169 166 161 160 151 149 145 143 151 144 132 125 111 82 53 35
264 271 274 263 243 251 256 258 280 289 287 269 282 290 290 281 247 240 223 215 206 212 205 198 191 188 189 190 190 191 189 179 170 166 169 162 163 165 157 155 154 154 149 144 141 113 89 66 51
290 292 282 295 287 288 297 250 250 25 287 5 17 2 355 346 335 322 270 228 216 212 202 197 186 187 189 189 187 184 175 172 167 163 165 164 168 166 164 160 157 148 146 140 131 111 101 89 76
352 284 322 285 274 271 268 267 257 260 48 30 16 8 360 351 341 320 302 264 229 204 208 192 183 184 187 185 178 176 176 168 167 166 168 170 167 163 163 155 150 148 142 134 130 130 123 106 57
342 328 299 234 271 270 267 269 273 63 39 21 9 1 353 349 345 336 316 292 247 190 203 205 189 177 169 172 173 179 175 169 166 162 161 166 165 161 158 154 142 145 135 130 141 123 110 81 12
329 317 314 303 279 286 282 272 72 67 30 9 356 348 343 342 341 338 337 18 8 185 207 216 201 184 174 175 176 176 173 164 158 156 157 160 160 162 157 153 145 142 136 144 135 94 50 7 337
46 47 3 313 297 303 294 270 161 71 9 355 337 331 329 331 333 336 328 320 290 237 229 220 209 197 179 181 178 173 166 160 153 156 160 162 162 157 158 145 154 133 142 165 137 114 5 309 311
Height
774 773 772 768 770 750 762 768 758 766 763 755 753 764 767 767 774 791 787 790 792 798 805 808 810 812 815 816 818 819 820 820 821 822 824 826 827 828 829 830 831 832 832 833 833 833 833 833 833
775 773 769 754 766 780 770 753 761 758 760 756 759 763 768 775 773 782 787 792 795 801 806 809 811 814 815 817 819 820 821 821 822 823 825 826 828 829 830 832 833 834 834 834 835 835 835 835 834
774 772 761 755 757 771 771 751 751 757 756 757 764 762 768 779 782 783 786 792 797 802 807 810 811 813 816 817 820 821 822 822 823 825 826 828 829 831 832 833 834 835 836 836 836 836 836 835 835
772 763 756 766 765 758 757 751 752 756 758 756 758 770 771 780 782 784 790 794 798 803 807 809 812 814 816 818 820 822 823 824 825 827 828 830 831 833 834 834 836 836 837 837 837 837 836 836 835
770 757 766 768 764 758 753 751 751 757 762 760 761 770 774 782 784 787 792 795 798 803 808 811 813 815 817 819 820 822 824 825 827 828 830 832 833 834 836 837 837 837 837 838 838 838 837 837 836
764 759 775 775 763 757 754 752 752 756 759 765 766 767 774 783 785 789 792 796 800 803 808 811 813 816 818 819 821 823 825 827 828 830 831 833 834 835 836 838 838 838 838 839 838 838 837 836 835
768 765 769 768 768 763 758 752 756 755 760 764 759 770 772 781 785 789 793 797 800 804 807 812 815 817 818 820 821 824 826 828 829 830 832 834 835 836 837 838 838 839 838 839 838 837 837 836 835
762 763 773 766 768 767 758 755 748 755 761 761 760 770 773 778 787 790 792 796 799 803 806 810 814 817 819 821 821 824 827 828 830 831 833 834 835 837 837 837 838 838 838 838 838 837 836 835 834
762 773 771 769 769 764 753 758 753 753 758 760 762 765 769 779 786 789 791 794 797 801 804 808 812 816 818 821 822 823 826 828 830 832 833 834 837 838 838 838 837 837 837 836 836 835 834 833 832
768 770 761 756 759 760 753 755 755 761 761 760 764 770 774 779 784 785 787 790 794 798 802 806 810 813 817 820 823 826 828 830 832 833 834 835 837 837 838 837 836 836 836 834 834 833 832 831 830
763 771 750 757 756 756 756 755 751 758 760 752 757 766 772 777 781 781 784 786 789 795 800 804 809 812 815 818 821 824 826 829 831 832 833 834 835 836 837 836 836 835 835 834 833 833 831 829 829
773 758 755 754 756 757 757 753 755 752 745 745 748 757 766 771 775 777 780 784 788 792 798 803 807 810 814 816 819 822 824 827 829 830 831 833 834 835 835 835 834 834 833 832 832 830 829 828 827
769 756 755 755 755 754 752 756 755 750 742 745 747 755 762 765 771 775 779 784 788 791 796 801 805 808 812 815 817 820 822 824 826 828 829 831 832 833 833 833 833 832 832 831 830 828 827 826 824
754 756 757 754 754 752 759 750 754 739 739 747 749 754 758 762 766 772 777 781 787 790 794 798 802 806 809 811 814 818 820 822 824 826 827 828 830 830 831 831 831 830 830 829 828 826 826 824 822
761 771 761 756 753 755 751 761 757 737 741 745 748 749 753 759 764 767 773 778 783 787 791 795 799 803 806 809 813 815 818 820 822 823 824 826 826 827 828 828 827 828 828 828 827 825 824 823 821
769 767 774 750 749 751 760 769 741 735 742 743 744 747 750 754 758 763 769 774 779 784 788 792 796 799 803 807 810 813 816 818 820 821 822 823 824 825 826 826 826 826 826 825 824 824 823 821 821
770 777 770 763 745 752 759 762 738 734 741 744 740 741 746 748 754 758 763 768 773 779 784 787 791 795 800 804 807 810 813 815 817 818 819 820 821 822 823 824 824 824 823 823 823 822 822 820 820
768 772 766 771 754 757 755 755 738 734 741 742 738 737 737 742 744 750 755 761 767 773 777 782 786 791 796 800 803 806 809 811 813 815 816 817 818 819 820 821 821 821 821 821 821 821 820 820 818
770 775 774 761 754 765 762 755 746 737 736 739 735 734 733 732 734 742 749 755 762 767 772 774 779 784 790 794 797 800 803 807 809 811 813 814 816 817 818 819 820 820 820 820 821 821 820 818 817
772 775 771 760 759 767 760 756 743 738 736 733 731 728 728 729 729 731 740 748 753 758 764 769 773 778 782 788 791 795 799 802 806 808 809 812 813 815 817 819 819 820 820 821 821 820 818 817 818
770 774 770 771 760 758 760 761 750 736 729 726 726 724 720 722 722 722 730 740 747 752 756 760 766 771 775 781 787 791 796 800 804 805 808 810 812 814 816 818 819 819 820 820 821 821 820 817 817
775 752 762 766 771 774 751 772 739 727 728 727 723 719 719 718 717 717 719 731 739 744 751 756 760 764 770 775 779 782 786 792 796 801 805 808 810 812 815 815 819 820 821 821 821 821 821 819 818
765 757 760 762 766 764 759 767 743 727 734 731 718 712 710 710 711 712 715 720 730 739 744 749 754 758 763 767 773 778 783 789 794 798 802 806 809 810 814 815 818 821 822 822 822 822 821 822 820
754 760 755 752 757 773 753 756 744 732 726 722 709 705 704 704 707 708 712 718 726 733 738 742 746 751 756 761 767 771 776 780 788 793 798 803 808 810 813 815 818 822 823 824 824 823 822 822 822
756 766 774 767 758 759 727 737 733 719 716 715 713 705 701 700 704 707 711 714 724 729 732 737 740 744 750 754 759 764 770 776 779 786 793 798 804 809 811 814 817 821 822 824 824 823 823 823 823
777 770 776 787 770 748 723 752 737 715 713 716 726 728 726 724 718 708 706 713 721 728 729 732 736 741 743 748 753 760 766 771 779 781 789 795 799 803 809 812 816 818 821 822 823 822 822 823 824
772 777 779 780 763 760 743 726 713 714 732 740 744 743 742 736 728 721 714 710 716 726 729 730 733 738 742 745 749 755 760 768 774 779 787 793 796 799 806 809 812 817 820 820 822 822 821 822 823
796 787 787 765 784 775 746 738 731 747 753 755 756 756 753 746 737 726 717 715 716 725 732 733 736 736 737 742 747 755 759 763 769 774 781 790 796 801 804 807 807 815 818 820 820 821 821 820 822
800 789 802 793 780 777 769 748 741 759 760 764 764 762 756 751 744 737 725 726 732 735 736 735 735 737 739 743 746 753 758 762 767 773 780 790 797 800 802 806 806 810 815 819 820 819 821 822 823
810 824 824 814 790 789 795 769 745 748 758 770 771 767 761 756 749 741 742 740 738 738 737 736 737 738 740 742 746 752 757 763 767 774 782 789 796 800 804 805 811 806 814 820 817 819 820 822 821